STARLINK-34915

Last updated on Sat Sep 13 2025 00:02:06 GMT+0000 (Coordinated Universal Time)

1 65187U 25175P 25255.58335648 -.02110439 00000+0 -57456-1 0 9997 2 65187 97.6038 126.9092 0002107 66.9760 86.1301 15.41206317 5920
UTC large
Height (km)
Speed (km/s)
/
Latitude / Longitude
Inclination (degrees)
Orbital Period (minutes)
Azimuth
Elevation
Range (km)
Doppler Factor

Next 0 passes for location: London (51.5072 / 0.1276)

Sorry there are no passes over London.